Time,TemperatureF,DewpointF,PressureIn,WindDirection,WindDirectionDegrees,WindSpeedMPH,WindSpeedGustMPH,Humidity,HourlyPrecipIn,Conditions,Clouds,dailyrainin,SoftwareType,DateUTC
2013-01-29 00:05:00,45.7,37.2,30.24,WNW,283,0.0,0.0,72,0.00,CLR,OVC,0.00,WeatherDisplay:10.37,2013-01-29 05:05:00,
2013-01-29 00:10:00,45.7,37.2,30.24,WNW,297,0.0,0.0,72,0.00,CLR,OVC,0.00,WeatherDisplay:10.37,2013-01-29 05:10:00,
2013-01-29 00:15:00,45.5,37.0,30.24,WNW,297,0.0,0.0,72,0.00,CLR,OVC,0.00,WeatherDisplay:10.37,2013-01-29 05:15:00,
2013-01-29 00:25:00,45.3,36.8,30.24,WNW,297,0.0,0.0,72,0.00,CLR,OVC,0.00,WeatherDisplay:10.37,2013-01-29 05:25:00,
2013-01-29 00:30:00,45.3,37.2,30.24,WNW,297,0.0,0.0,73,0.00,CLR,OVC,0.00,WeatherDisplay:10.37,2013-01-29 05:30:00,
2013-01-29 00:40:00,45.0,36.8,30.24,WNW,296,0.0,0.0,73,0.00,CLR,OVC,0.00,WeatherDisplay:10.37,2013-01-29 05:40:00,
2013-01-29 00:50:00,45.0,37.2,30.21,WNW,295,0.0,0.0,74,0.00,CLR,OVC,0.00,WeatherDisplay:10.37,2013-01-29 05:50:00,
2013-01-29 01:00:00,45.0,37.2,30.21,WNW,295,0.0,0.0,74,0.00,CLR,OVC,0.00,WeatherDisplay:10.37,2013-01-29 06:00:00,
2013-01-29 01:05:00,44.8,37.0,30.21,WNW,295,0.0,0.0,74,0.00,CLR,OVC,0.00,WeatherDisplay:10.37,2013-01-29 06:05:00,
2013-01-29 01:10:00,45.0,37.2,30.21,WNW,295,0.0,0.0,74,0.00,CLR,OVC,0.00,WeatherDisplay:10.37,2013-01-29 06:10:00,
2013-01-29 01:20:00,45.1,37.7,30.21,WNW,295,0.0,0.0,75,0.00,CLR,OVC,0.00,WeatherDisplay:10.37,2013-01-29 06:20:00,
2013-01-29 01:30:00,45.3,37.9,30.21,West,263,0.0,0.0,75,0.00,CLR,OVC,0.00,WeatherDisplay:10.37,2013-01-29 06:30:00,
2013-01-29 01:40:00,45.3,37.9,30.21,West,277,0.0,4.0,75,0.00,CLR,OVC,0.00,WeatherDisplay:10.37,2013-01-29 06:40:00,
2013-01-29 01:45:00,45.3,37.9,30.21,WNW,288,0.0,0.0,75,0.00,CLR,OVC,0.00,WeatherDisplay:10.37,2013-01-29 06:45:00,
2013-01-29 01:50:00,45.3,37.9,30.21,WNW,284,0.0,0.0,75,0.00,CLR,OVC,0.00,WeatherDisplay:10.37,2013-01-29 06:50:00,
2013-01-29 01:55:00,45.3,38.2,30.21,West,281,0.0,4.0,76,0.00,CLR,OVC,0.00,WeatherDisplay:10.37,2013-01-29 06:55:00,
2013-01-29 02:00:00,45.5,38.4,30.21,West,278,0.0,0.0,76,0.00,CLR,OVC,0.00,WeatherDisplay:10.37,2013-01-29 07:00:00,
2013-01-29 02:05:00,45.5,38.4,30.21,West,274,0.0,0.0,76,0.00,CLR,OVC,0.00,WeatherDisplay:10.37,2013-01-29 07:05:00,
2013-01-29 02:10:00,45.3,38.2,30.21,West,274,0.0,0.0,76,0.00,CLR,OVC,0.00,WeatherDisplay:10.37,2013-01-29 07:10:00,
2013-01-29 02:20:00,45.3,38.2,30.21,WNW,282,0.0,0.0,76,0.00,CLR,OVC,0.00,WeatherDisplay:10.37,2013-01-29 07:20:00,
2013-01-29 02:30:00,45.1,38.0,30.21,West,277,0.0,0.0,76,0.00,CLR,OVC,0.00,WeatherDisplay:10.37,2013-01-29 07:30:00,
2013-01-29 02:35:00,45.1,38.0,30.21,West,276,0.0,0.0,76,0.00,CLR,OVC,0.00,WeatherDisplay:10.37,2013-01-29 07:35:00,
2013-01-29 02:40:00,45.0,37.8,30.21,West,276,0.0,0.0,76,0.00,CLR,OVC,0.00,WeatherDisplay:10.37,2013-01-29 07:40:00,
2013-01-29 02:45:00,45.0,37.8,30.21,West,276,0.0,0.0,76,0.00,CLR,OVC,0.00,WeatherDisplay:10.37,2013-01-29 07:45:00,
2013-01-29 02:50:00,45.1,38.0,30.21,West,276,0.0,0.0,76,0.00,CLR,OVC,0.00,WeatherDisplay:10.37,2013-01-29 07:50:00,
2013-01-29 03:00:00,45.0,37.8,30.21,West,276,0.0,0.0,76,0.00,CLR,OVC,0.00,WeatherDisplay:10.37,2013-01-29 08:00:00,
2013-01-29 03:05:00,44.8,37.7,30.21,West,276,0.0,0.0,76,0.00,CLR,OVC,0.00,WeatherDisplay:10.37,2013-01-29 08:05:00,
2013-01-29 03:10:00,44.4,37.3,30.21,West,276,0.0,0.0,76,0.00,CLR,OVC,0.00,WeatherDisplay:10.37,2013-01-29 08:10:00,
2013-01-29 03:20:00,44.1,37.0,30.21,West,276,0.0,0.0,76,0.00,CLR,OVC,0.00,WeatherDisplay:10.37,2013-01-29 08:20:00,
2013-01-29 03:30:00,43.7,36.6,30.21,West,276,0.0,0.0,76,0.00,CLR,OVC,0.00,WeatherDisplay:10.37,2013-01-29 08:30:00,
2013-01-29 03:40:00,43.5,36.5,30.21,West,276,0.0,0.0,76,0.00,CLR,OVC,0.00,WeatherDisplay:10.37,2013-01-29 08:40:00,
2013-01-29 03:50:00,43.2,36.4,30.21,West,276,0.0,0.0,77,0.00,CLR,OVC,0.00,WeatherDisplay:10.37,2013-01-29 08:50:00,
2013-01-29 04:00:00,43.0,36.3,30.21,West,276,0.0,0.0,77,0.00,CLR,OVC,0.00,WeatherDisplay:10.37,2013-01-29 09:00:00,
2013-01-29 04:05:00,42.8,36.1,30.21,West,276,0.0,0.0,77,0.00,CLR,OVC,0.00,WeatherDisplay:10.37,2013-01-29 09:05:00,
2013-01-29 04:10:00,42.8,36.1,30.21,West,276,0.0,0.0,77,0.00,CLR,OVC,0.00,WeatherDisplay:10.37,2013-01-29 09:10:00,
2013-01-29 04:20:00,42.6,35.9,30.21,West,276,0.0,0.0,77,0.00,CLR,OVC,0.00,WeatherDisplay:10.37,2013-01-29 09:20:00,
2013-01-29 04:30:00,42.4,35.7,30.21,West,276,0.0,0.0,77,0.00,CLR,OVC,0.00,WeatherDisplay:10.37,2013-01-29 09:30:00,
2013-01-29 04:40:00,42.4,35.7,30.18,West,276,0.0,0.0,77,0.00,CLR,OVC,0.00,WeatherDisplay:10.37,2013-01-29 09:40:00,
2013-01-29 04:45:00,42.4,35.7,30.18,West,276,0.0,0.0,77,0.00,CLR,OVC,0.00,WeatherDisplay:10.37,2013-01-29 09:45:00,
2013-01-29 04:50:00,42.3,35.6,30.18,West,276,0.0,0.0,77,0.00,CLR,OVC,0.00,WeatherDisplay:10.37,2013-01-29 09:50:00,
2013-01-29 04:55:00,42.3,35.6,30.18,West,276,0.0,0.0,77,0.00,CLR,OVC,0.00,WeatherDisplay:10.37,2013-01-29 09:55:00,
2013-01-29 05:00:00,42.3,35.6,30.18,West,276,0.0,0.0,77,0.00,CLR,OVC,0.00,WeatherDisplay:10.37,2013-01-29 10:00:00,
2013-01-29 05:05:00,42.3,35.9,30.18,West,276,0.0,0.0,78,0.00,CLR,OVC,0.00,WeatherDisplay:10.37,2013-01-29 10:05:00,
2013-01-29 05:10:00,42.1,35.7,30.18,West,276,0.0,0.0,78,0.00,CLR,OVC,0.00,WeatherDisplay:10.37,2013-01-29 10:10:00,
2013-01-29 05:20:00,42.1,35.7,30.21,West,276,0.0,0.0,78,0.00,CLR,OVC,0.00,WeatherDisplay:10.37,2013-01-29 10:20:00,
2013-01-29 05:30:00,42.1,35.7,30.21,West,276,0.0,0.0,78,0.00,CLR,OVC,0.00,WeatherDisplay:10.37,2013-01-29 10:30:00,
2013-01-29 05:40:00,42.3,35.9,30.21,West,276,0.0,0.0,78,0.00,CLR,OVC,0.00,WeatherDisplay:10.37,2013-01-29 10:40:00,
2013-01-29 05:50:00,42.3,35.9,30.21,West,276,0.0,0.0,78,0.00,CLR,OVC,0.00,WeatherDisplay:10.37,2013-01-29 10:50:00,
2013-01-29 06:00:00,42.4,36.1,30.21,West,276,0.0,0.0,78,0.00,CLR,OVC,0.00,WeatherDisplay:10.37,2013-01-29 11:00:00,
2013-01-29 06:05:00,42.4,36.1,30.18,West,275,0.0,5.0,78,0.00,CLR,OVC,0.00,WeatherDisplay:10.37,2013-01-29 11:05:00,
2013-01-29 06:10:00,42.6,36.6,30.18,West,277,0.0,5.0,79,0.00,CLR,OVC,0.00,WeatherDisplay:10.37,2013-01-29 11:10:00,
2013-01-29 06:20:00,42.8,36.7,30.18,West,278,0.0,0.0,79,0.00,CLR,OVC,0.00,WeatherDisplay:10.37,2013-01-29 11:20:00,
2013-01-29 06:25:00,42.8,36.7,30.18,West,278,0.0,0.0,79,0.00,CLR,OVC,0.00,WeatherDisplay:10.37,2013-01-29 11:25:00,
2013-01-29 06:30:00,42.8,36.7,30.18,West,278,0.0,0.0,79,0.00,CLR,OVC,0.00,WeatherDisplay:10.37,2013-01-29 11:30:00,
2013-01-29 06:35:00,43.0,36.9,30.18,West,278,0.0,0.0,79,0.00,CLR,OVC,0.00,WeatherDisplay:10.37,2013-01-29 11:35:00,
2013-01-29 06:40:00,43.0,36.9,30.18,West,278,0.0,0.0,79,0.00,CLR,OVC,0.00,WeatherDisplay:10.37,2013-01-29 11:40:00,
2013-01-29 06:50:00,43.2,37.1,30.18,West,278,0.0,0.0,79,0.00,CLR,OVC,0.00,WeatherDisplay:10.37,2013-01-29 11:50:00,
2013-01-29 07:00:00,43.0,36.9,30.18,West,278,0.0,0.0,79,0.00,CLR,OVC,0.00,WeatherDisplay:10.37,2013-01-29 12:00:00,
2013-01-29 07:05:00,43.0,36.9,30.18,West,278,0.0,0.0,79,0.00,CLR,OVC,0.00,WeatherDisplay:10.37,2013-01-29 12:05:00,
2013-01-29 07:10:00,43.0,36.9,30.18,West,278,0.0,0.0,79,0.00,CLR,OVC,0.00,WeatherDisplay:10.37,2013-01-29 12:10:00,
2013-01-29 07:15:00,42.8,37.1,30.18,West,278,0.0,0.0,80,0.00,CLR,OVC,0.00,WeatherDisplay:10.37,2013-01-29 12:15:00,
2013-01-29 07:20:00,42.8,37.1,30.20,West,278,0.0,0.0,80,0.00,CLR,OVC,0.00,WeatherDisplay:10.37,2013-01-29 12:20:00,
2013-01-29 07:25:00,42.8,37.1,30.21,West,278,0.0,0.0,80,0.00,CLR,OVC,0.00,WeatherDisplay:10.37,2013-01-29 12:25:00,
2013-01-29 07:30:00,42.8,37.1,30.21,West,278,0.0,0.0,80,0.00,CLR,OVC,0.00,WeatherDisplay:10.37,2013-01-29 12:30:00,
2013-01-29 07:40:00,42.9,37.2,30.21,West,278,0.0,0.0,80,0.00,CLR,OVC,0.00,WeatherDisplay:10.37,2013-01-29 12:40:00,
2013-01-29 07:45:00,43.0,37.2,30.21,West,278,0.0,0.0,80,0.00,CLR,OVC,0.00,WeatherDisplay:10.37,2013-01-29 12:45:00,
2013-01-29 07:50:00,43.0,37.2,30.21,West,278,0.0,0.0,80,0.00,CLR,OVC,0.00,WeatherDisplay:10.37,2013-01-29 12:50:00,
2013-01-29 08:00:00,43.4,37.6,30.21,West,278,0.0,0.0,80,0.00,CLR,OVC,0.00,WeatherDisplay:10.37,2013-01-29 13:00:00,
2013-01-29 08:05:00,44.0,38.5,30.21,West,278,0.0,0.0,81,0.00,CLR,OVC,0.00,WeatherDisplay:10.37,2013-01-29 13:05:00,
2013-01-29 08:10:00,44.5,39.1,30.21,West,278,0.0,0.0,81,0.00,CLR,OVC,0.00,WeatherDisplay:10.37,2013-01-29 13:10:00,
2013-01-29 08:20:00,45.5,40.0,30.21,West,278,0.0,0.0,81,0.00,CLR,OVC,0.00,WeatherDisplay:10.37,2013-01-29 13:20:00,
2013-01-29 08:25:00,45.9,40.4,30.21,West,278,0.0,0.0,81,0.00,CLR,OVC,0.00,WeatherDisplay:10.37,2013-01-29 13:25:00,
2013-01-29 08:30:00,46.0,40.5,30.21,West,278,0.0,0.0,81,0.00,CLR,OVC,0.00,WeatherDisplay:10.37,2013-01-29 13:30:00,
2013-01-29 08:40:00,46.9,41.7,30.21,West,279,0.0,0.0,82,0.00,CLR,OVC,0.00,WeatherDisplay:10.37,2013-01-29 13:40:00,
2013-01-29 08:45:00,47.1,41.6,30.21,West,279,0.0,0.0,81,0.00,CLR,OVC,0.00,WeatherDisplay:10.37,2013-01-29 13:45:00,
2013-01-29 08:50:00,47.5,41.9,30.21,West,279,0.0,0.0,81,0.00,CLR,OVC,0.00,WeatherDisplay:10.37,2013-01-29 13:50:00,
2013-01-29 08:55:00,47.8,42.5,30.21,West,278,0.0,0.0,82,0.00,CLR,OVC,0.00,WeatherDisplay:10.37,2013-01-29 13:55:00,
2013-01-29 09:00:00,48.2,43.0,30.21,West,277,0.0,0.0,82,0.00,CLR,OVC,0.00,WeatherDisplay:10.37,2013-01-29 14:00:00,
2013-01-29 09:05:00,48.8,43.6,30.21,West,277,0.0,0.0,82,0.00,CLR,OVC,0.00,WeatherDisplay:10.37,2013-01-29 14:05:00,
2013-01-29 09:10:00,49.5,44.5,30.21,West,277,0.0,0.0,83,0.00,CLR,OVC,0.00,WeatherDisplay:10.37,2013-01-29 14:10:00,
2013-01-29 09:20:00,50.9,45.9,30.21,WSW,256,0.0,0.0,83,0.00,CLR,OVC,0.00,WeatherDisplay:10.37,2013-01-29 14:20:00,
2013-01-29 09:25:00,51.5,46.5,30.21,SW,236,0.0,0.0,83,0.00,CLR,OVC,0.00,WeatherDisplay:10.37,2013-01-29 14:25:00,
2013-01-29 09:30:00,52.0,47.0,30.21,WSW,245,0.0,0.0,83,0.00,CLR,OVC,0.00,WeatherDisplay:10.37,2013-01-29 14:30:00,
2013-01-29 09:40:00,53.2,48.2,30.18,WSW,256,0.0,0.0,83,0.00,CLR,OVC,0.00,WeatherDisplay:10.37,2013-01-29 14:40:00,
2013-01-29 09:50:00,54.8,49.7,30.21,WSW,240,0.0,0.0,83,0.00,CLR,OVC,0.00,WeatherDisplay:10.37,2013-01-29 14:50:00,
2013-01-29 10:00:00,56.4,51.6,30.21,West,262,0.0,0.0,84,0.00,CLR,OVC,0.00,WeatherDisplay:10.37,2013-01-29 15:00:00,
2013-01-29 10:05:00,57.4,52.6,30.21,SW,218,2.0,5.0,84,0.00,CLR,OVC,0.00,WeatherDisplay:10.37,2013-01-29 15:05:00,
2013-01-29 10:10:00,58.4,53.6,30.21,WSW,250,2.0,5.0,84,0.00,CLR,OVC,0.00,WeatherDisplay:10.37,2013-01-29 15:10:00,
2013-01-29 10:20:00,60.1,55.0,30.21,West,267,2.0,5.0,83,0.00,CLR,OVC,0.00,WeatherDisplay:10.37,2013-01-29 15:20:00,
2013-01-29 10:25:00,60.8,55.6,30.21,West,267,0.0,5.0,83,0.00,CLR,OVC,0.00,WeatherDisplay:10.37,2013-01-29 15:25:00,
2013-01-29 10:30:00,61.3,55.8,30.21,West,275,0.0,7.0,82,0.00,CLR,OVC,0.00,WeatherDisplay:10.37,2013-01-29 15:30:00,
2013-01-29 10:40:00,62.3,56.0,30.21,West,265,3.0,7.0,80,0.00,CLR,OVC,0.00,WeatherDisplay:10.37,2013-01-29 15:40:00,
2013-01-29 10:50:00,63.0,56.0,30.21,West,266,3.0,6.0,78,0.00,CLR,OVC,0.00,WeatherDisplay:10.37,2013-01-29 15:50:00,
2013-01-29 10:55:00,63.3,55.6,30.21,WSW,255,0.0,7.0,76,0.00,CLR,OVC,0.00,WeatherDisplay:10.37,2013-01-29 15:55:00,
2013-01-29 11:00:00,64.0,55.9,30.21,West,263,3.0,5.0,75,0.00,CLR,OVC,0.00,WeatherDisplay:10.37,2013-01-29 16:00:00,
2013-01-29 11:05:00,64.6,55.8,30.21,West,264,5.0,7.0,73,0.00,CLR,OVC,0.00,WeatherDisplay:10.37,2013-01-29 16:05:00,
2013-01-29 11:10:00,65.1,55.1,30.21,WSW,258,2.0,5.0,70,0.00,CLR,OVC,0.00,WeatherDisplay:10.37,2013-01-29 16:10:00,
2013-01-29 11:15:00,65.6,54.7,30.21,WSW,257,3.0,7.0,68,0.00,CLR,OVC,0.00,WeatherDisplay:10.37,2013-01-29 16:15:00,
2013-01-29 11:20:00,66.0,53.9,30.18,WSW,250,2.0,7.0,65,0.00,CLR,OVC,0.00,WeatherDisplay:10.37,2013-01-29 16:20:00,
2013-01-29 11:30:00,67.2,53.3,30.18,West,277,0.0,0.0,61,0.00,CLR,OVC,0.00,WeatherDisplay:10.37,2013-01-29 16:30:00,
2013-01-29 11:35:00,67.9,52.6,30.18,WNW,286,3.0,6.0,58,0.00,CLR,OVC,0.00,WeatherDisplay:10.37,2013-01-29 16:35:00,
2013-01-29 11:40:00,68.5,51.7,30.18,WNW,282,2.0,8.0,55,0.00,CLR,OVC,0.00,WeatherDisplay:10.37,2013-01-29 16:40:00,
2013-01-29 11:50:00,69.4,50.0,30.18,WNW,288,0.0,7.0,50,0.00,CLR,OVC,0.00,WeatherDisplay:10.37,2013-01-29 16:50:00,
2013-01-29 12:00:00,69.6,47.3,30.18,West,279,0.0,5.0,45,0.00,CLR,OVC,0.00,WeatherDisplay:10.37,2013-01-29 17:00:00,
2013-01-29 12:05:00,69.8,46.9,30.16,WNW,289,0.0,4.0,44,0.00,CLR,OVC,0.00,WeatherDisplay:10.37,2013-01-29 17:05:00,
2013-01-29 12:10:00,69.8,46.3,30.15,West,271,2.0,9.0,43,0.00,CLR,OVC,0.00,WeatherDisplay:10.37,2013-01-29 17:10:00,
2013-01-29 12:20:00,69.3,42.6,30.15,WSW,248,5.0,7.0,38,0.00,CLR,OVC,0.00,WeatherDisplay:10.37,2013-01-29 17:20:00,
2013-01-29 12:25:00,69.4,42.0,30.15,SW,233,5.0,8.0,37,0.00,CLR,OVC,0.00,WeatherDisplay:10.37,2013-01-29 17:25:00,
2013-01-29 12:30:00,69.6,42.2,30.15,WSW,257,3.0,5.0,37,0.00,CLR,OVC,0.00,WeatherDisplay:10.37,2013-01-29 17:30:00,
2013-01-29 12:40:00,69.8,42.3,30.15,West,261,1.0,7.0,37,0.00,CLR,OVC,0.00,WeatherDisplay:10.37,2013-01-29 17:40:00,
2013-01-29 12:45:00,69.3,41.2,30.15,WSW,256,1.0,8.0,36,0.00,CLR,OVC,0.00,WeatherDisplay:10.37,2013-01-29 17:45:00,
2013-01-29 12:50:00,69.1,41.0,30.15,SW,230,0.0,5.0,36,0.00,CLR,OVC,0.00,WeatherDisplay:10.37,2013-01-29 17:50:00,
2013-01-29 12:55:00,69.4,41.3,30.15,WSW,238,0.0,0.0,36,0.00,CLR,OVC,0.00,WeatherDisplay:10.37,2013-01-29 17:55:00,
2013-01-29 13:00:00,70.0,40.3,30.15,WSW,257,0.0,5.0,34,0.00,CLR,OVC,0.00,WeatherDisplay:10.37,2013-01-29 18:00:00,
2013-01-29 13:05:00,70.7,40.2,30.12,SW,230,0.0,6.0,33,0.00,CLR,OVC,0.00,WeatherDisplay:10.37,2013-01-29 18:05:00,
2013-01-29 13:10:00,71.1,39.7,30.12,WSW,237,5.0,8.0,32,0.00,CLR,OVC,0.00,WeatherDisplay:10.37,2013-01-29 18:10:00,
2013-01-29 13:20:00,72.0,40.5,30.12,WSW,246,3.0,7.0,32,0.00,CLR,OVC,0.00,WeatherDisplay:10.37,2013-01-29 18:20:00,
2013-01-29 13:30:00,71.8,39.5,30.12,West,273,1.0,6.0,31,0.00,CLR,OVC,0.00,WeatherDisplay:10.37,2013-01-29 18:30:00,
2013-01-29 13:35:00,71.6,40.2,30.12,West,278,3.0,6.0,32,0.00,CLR,OVC,0.00,WeatherDisplay:10.37,2013-01-29 18:35:00,
2013-01-29 13:40:00,71.4,40.0,30.12,West,264,0.0,5.0,32,0.00,CLR,OVC,0.00,WeatherDisplay:10.37,2013-01-29 18:40:00,
2013-01-29 13:50:00,71.2,39.0,30.12,West,261,3.0,5.0,31,0.00,CLR,OVC,0.00,WeatherDisplay:10.37,2013-01-29 18:50:00,
2013-01-29 14:00:00,71.8,39.6,30.12,West,271,2.0,5.0,31,0.00,CLR,OVC,0.00,WeatherDisplay:10.37,2013-01-29 19:00:00,
2013-01-29 14:05:00,72.1,39.8,30.09,West,264,0.0,0.0,31,0.00,CLR,OVC,0.00,WeatherDisplay:10.37,2013-01-29 19:05:00,
2013-01-29 14:10:00,72.3,38.3,30.09,West,260,0.0,7.0,29,0.00,CLR,OVC,0.00,WeatherDisplay:10.37,2013-01-29 19:10:00,
2013-01-29 14:20:00,72.4,38.4,30.09,WSW,254,0.0,3.0,29,0.00,CLR,OVC,0.00,WeatherDisplay:10.37,2013-01-29 19:20:00,
2013-01-29 14:30:00,73.2,39.0,30.09,WNW,284,0.0,5.0,29,0.00,CLR,OVC,0.00,WeatherDisplay:10.37,2013-01-29 19:30:00,
2013-01-29 14:35:00,73.4,39.2,30.09,West,277,2.0,7.0,29,0.00,CLR,OVC,0.00,WeatherDisplay:10.37,2013-01-29 19:35:00,
2013-01-29 14:40:00,73.6,39.4,30.09,West,263,0.0,8.0,29,0.00,CLR,OVC,0.00,WeatherDisplay:10.37,2013-01-29 19:40:00,
2013-01-29 14:45:00,73.4,39.2,30.09,WSW,245,3.0,7.0,29,0.00,CLR,OVC,0.00,WeatherDisplay:10.37,2013-01-29 19:45:00,
2013-01-29 14:50:00,73.2,39.0,30.09,WSW,246,2.0,5.0,29,0.00,CLR,OVC,0.00,WeatherDisplay:10.37,2013-01-29 19:50:00,
2013-01-29 14:55:00,72.9,38.7,30.09,West,262,0.0,4.0,29,0.00,CLR,OVC,0.00,WeatherDisplay:10.37,2013-01-29 19:55:00,
2013-01-29 15:05:00,72.2,38.2,30.09,West,268,3.0,6.0,29,0.00,CLR,OVC,0.00,WeatherDisplay:10.37,2013-01-29 20:05:00,
2013-01-29 15:20:00,71.8,37.8,30.09,WSW,247,2.0,5.0,29,0.00,CLR,OVC,0.00,WeatherDisplay:10.37,2013-01-29 20:20:00,
2013-01-29 15:25:00,71.8,37.8,30.09,West,264,0.0,5.0,29,0.00,CLR,OVC,0.00,WeatherDisplay:10.37,2013-01-29 20:25:00,
2013-01-29 15:35:00,71.4,37.5,30.09,West,268,2.0,7.0,29,0.00,CLR,OVC,0.00,WeatherDisplay:10.37,2013-01-29 20:35:00,
2013-01-29 15:45:00,71.1,36.3,30.09,WSW,254,1.0,5.0,28,0.00,CLR,OVC,0.00,WeatherDisplay:10.37,2013-01-29 20:45:00,
2013-01-29 15:55:00,70.9,37.0,30.09,WSW,258,0.0,8.0,29,0.00,CLR,OVC,0.00,WeatherDisplay:10.37,2013-01-29 20:55:00,
2013-01-29 16:00:00,70.7,36.9,30.09,WSW,249,0.0,4.0,29,0.00,CLR,OVC,0.00,WeatherDisplay:10.37,2013-01-29 21:00:00,
2013-01-29 16:05:00,70.9,37.0,30.09,West,275,2.0,5.0,29,0.00,CLR,OVC,0.00,WeatherDisplay:10.37,2013-01-29 21:05:00,
2013-01-29 16:10:00,70.7,36.9,30.09,West,279,3.0,5.0,29,0.00,CLR,OVC,0.00,WeatherDisplay:10.37,2013-01-29 21:10:00,
2013-01-29 16:15:00,70.7,36.9,30.09,West,270,0.0,3.0,29,0.00,CLR,OVC,0.00,WeatherDisplay:10.37,2013-01-29 21:15:00,
2013-01-29 16:20:00,70.5,36.7,30.09,SW,235,0.0,0.0,29,0.00,CLR,OVC,0.00,WeatherDisplay:10.37,2013-01-29 21:20:00,
2013-01-29 16:25:00,70.3,38.3,30.09,SW,229,0.0,5.0,31,0.00,CLR,OVC,0.00,WeatherDisplay:10.37,2013-01-29 21:25:00,
2013-01-29 16:35:00,70.2,38.1,30.09,WSW,254,0.0,0.0,31,0.00,CLR,OVC,0.00,WeatherDisplay:10.37,2013-01-29 21:35:00,
2013-01-29 16:40:00,70.0,37.9,30.09,WSW,239,0.0,5.0,31,0.00,CLR,OVC,0.00,WeatherDisplay:10.37,2013-01-29 21:40:00,
2013-01-29 16:45:00,69.8,38.6,30.09,WNW,295,0.0,4.0,32,0.00,CLR,OVC,0.00,WeatherDisplay:10.37,2013-01-29 21:45:00,
2013-01-29 16:50:00,69.6,38.4,30.09,NW,306,2.0,5.0,32,0.00,CLR,OVC,0.00,WeatherDisplay:10.37,2013-01-29 21:50:00,
2013-01-29 16:55:00,69.3,38.2,30.09,WSW,247,2.0,5.0,32,0.00,CLR,OVC,0.00,WeatherDisplay:10.37,2013-01-29 21:55:00,
2013-01-29 17:00:00,68.9,37.8,30.09,WSW,241,0.0,5.0,32,0.00,CLR,OVC,0.00,WeatherDisplay:10.37,2013-01-29 22:00:00,
2013-01-29 17:05:00,68.6,37.5,30.09,SW,233,0.0,4.0,32,0.00,CLR,OVC,0.00,WeatherDisplay:10.37,2013-01-29 22:05:00,
2013-01-29 17:10:00,68.2,38.0,30.09,SW,224,0.0,4.0,33,0.00,CLR,OVC,0.00,WeatherDisplay:10.37,2013-01-29 22:10:00,
2013-01-29 17:20:00,67.6,37.5,30.09,SW,214,0.0,0.0,33,0.00,CLR,OVC,0.00,WeatherDisplay:10.37,2013-01-29 22:20:00,
2013-01-29 17:30:00,67.3,37.9,30.09,South,175,0.0,0.0,34,0.00,CLR,OVC,0.00,WeatherDisplay:10.37,2013-01-29 22:30:00,
2013-01-29 17:40:00,67.0,37.7,30.09,SE,145,0.0,0.0,34,0.00,CLR,OVC,0.00,WeatherDisplay:10.37,2013-01-29 22:40:00,
2013-01-29 17:50:00,66.5,38.7,30.06,SE,138,0.0,0.0,36,0.00,CLR,OVC,0.00,WeatherDisplay:10.37,2013-01-29 22:50:00,
2013-01-29 18:00:00,65.8,38.8,30.06,SE,138,0.0,0.0,37,0.00,CLR,OVC,0.00,WeatherDisplay:10.37,2013-01-29 23:00:00,
2013-01-29 18:05:00,65.5,38.5,30.09,SE,138,0.0,0.0,37,0.00,CLR,OVC,0.00,WeatherDisplay:10.37,2013-01-29 23:05:00,
2013-01-29 18:10:00,65.2,38.9,30.09,SE,138,0.0,0.0,38,0.00,CLR,OVC,0.00,WeatherDisplay:10.37,2013-01-29 23:10:00,
2013-01-29 18:15:00,64.8,39.3,30.09,SE,138,0.0,0.0,39,0.00,CLR,OVC,0.00,WeatherDisplay:10.37,2013-01-29 23:15:00,
2013-01-29 18:20:00,64.6,39.7,30.09,SE,138,0.0,0.0,40,0.00,CLR,OVC,0.00,WeatherDisplay:10.37,2013-01-29 23:20:00,
2013-01-29 18:30:00,64.0,40.5,30.09,SE,138,0.0,0.0,42,0.00,CLR,OVC,0.00,WeatherDisplay:10.37,2013-01-29 23:30:00,
2013-01-29 18:40:00,63.7,40.8,30.06,SE,138,0.0,0.0,43,0.00,CLR,OVC,0.00,WeatherDisplay:10.37,2013-01-29 23:40:00,
2013-01-29 18:50:00,63.3,41.0,30.06,SE,138,0.0,0.0,44,0.00,CLR,OVC,0.00,WeatherDisplay:10.37,2013-01-29 23:50:00,
2013-01-29 19:00:00,63.1,41.4,30.06,SE,138,0.0,0.0,45,0.00,CLR,OVC,0.00,WeatherDisplay:10.37,2013-01-30 00:00:00,
2013-01-29 19:05:00,62.9,41.2,30.06,SE,138,0.0,0.0,45,0.00,CLR,OVC,0.00,WeatherDisplay:10.37,2013-01-30 00:05:00,
2013-01-29 19:10:00,62.8,41.1,30.06,SE,138,0.0,0.0,45,0.00,CLR,OVC,0.00,WeatherDisplay:10.37,2013-01-30 00:10:00,
2013-01-29 19:20:00,62.4,41.4,30.06,SE,138,0.0,0.0,46,0.00,CLR,OVC,0.00,WeatherDisplay:10.37,2013-01-30 00:20:00,
2013-01-29 19:25:00,62.2,41.1,30.06,SE,138,0.0,0.0,46,0.00,CLR,OVC,0.00,WeatherDisplay:10.37,2013-01-30 00:25:00,
2013-01-29 19:30:00,62.0,41.0,30.06,SE,138,0.0,0.0,46,0.00,CLR,OVC,0.00,WeatherDisplay:10.37,2013-01-30 00:30:00,
2013-01-29 19:35:00,61.7,40.7,30.06,SE,138,0.0,0.0,46,0.00,CLR,OVC,0.00,WeatherDisplay:10.37,2013-01-30 00:35:00,
2013-01-29 19:40:00,61.5,41.6,30.06,SE,138,0.0,0.0,48,0.00,CLR,OVC,0.00,WeatherDisplay:10.37,2013-01-30 00:40:00,
2013-01-29 19:50:00,61.0,41.7,30.06,SE,138,0.0,0.0,49,0.00,CLR,OVC,0.00,WeatherDisplay:10.37,2013-01-30 00:50:00,
2013-01-29 20:00:00,60.6,41.3,30.06,SE,138,0.0,0.0,49,0.00,CLR,OVC,0.00,WeatherDisplay:10.37,2013-01-30 01:00:00,
2013-01-29 20:05:00,60.4,41.7,30.06,SE,138,0.0,0.0,50,0.00,CLR,OVC,0.00,WeatherDisplay:10.37,2013-01-30 01:05:00,